Missouri River (Missouri), Waverly (06895500)

StateMissouriLatestUnknown (53400 cfs)
RiverMissouri RiverRatingObservedEstimated
Updated2026-05-05 11:00 (29 minutes ago)Flood - The river is flooding. Obstacles can be treacherous or deadly. The river should be avoided at this stage for casual trips and definitely for the inexperienced. Trips should be attempted only with protective gear and equipment.Flood(none)(none)
Discharge53400 cfs (median: 62300 cfs)High - The river is high and potentially dangerous, especially for the young and / or inexperienced. Normal stream obstacles are sometimes difficult to navigate. Extended distances can be attempted, but canoe travel may not be advisable.High(none)(none)
Height12.56 feetGood - Conditions are ideal for a canoe or kayak. Boats typically will drag on fewer than one-quarter of riffles, if at all, and portages are unnecessary or rare. Normal float lengths can be attempted without a problem.Good(none)(none)
TrendSteady (falling over 24 hours)Low - River is low but can still be floated. Some riffles are okay but most come with significant dragging and might need a portage. Float lengths should be reduced to accommodate low flow, dragging, and portages.Low(none)(none)
USGSExternal icon USGS Site (External icon Duck Duck Go Maps)Poor - River is too low to float comfortably. Most or all riffles will drag or must be portaged and some obstacles (such as slick shelf rock) cause undue problems. Avoid the river at this stage for casual paddling trips.Poor(none)(none)

Trending Data

Plot Image

Trips for Missouri River (Missouri), Waverly (06895500)

DateStartEndDistanceConditionDischargeHeightFishingDetails

A total of 0 rows are displayed.

Condition Descriptions

Fishing Conditions

Fish Species

Notes

Classic Trip List

The classic River Trips application is still available for use. It is updated with the new system using a data retrofit. It is no longer maintained. The original River Trips application is no longer updated (as of 1 Dec 2016) but can be checked for errors or for the condition of the data before it was converted to the new system.

Gauge Data Table

ObservationHeightDischargeMaximum
Discharge
Minimum
Discharge
Mean
Discharge
P05P10P20P25P50
(Median)
P75P80P90P95
2026-05-05 11:00 12.56 53400 163000 (1999) 37100 (1981) 71400 38400 39900 42400 45400 62300 90000 94000 123000 149000
2026-05-05 10:00 12.56 53400 163000 (1999) 37100 (1981) 71400 38400 39900 42400 45400 62300 90000 94000 123000 149000
2026-05-05 09:00 12.55 53400 163000 (1999) 37100 (1981) 71400 38400 39900 42400 45400 62300 90000 94000 123000 149000
2026-05-05 08:00 12.50 53100 163000 (1999) 37100 (1981) 71400 38400 39900 42400 45400 62300 90000 94000 123000 149000
2026-05-05 07:00 12.53 53300 163000 (1999) 37100 (1981) 71400 38400 39900 42400 45400 62300 90000 94000 123000 149000
2026-05-05 06:00 12.55 53400 163000 (1999) 37100 (1981) 71400 38400 39900 42400 45400 62300 90000 94000 123000 149000
2026-05-05 05:00 12.50 53100 163000 (1999) 37100 (1981) 71400 38400 39900 42400 45400 62300 90000 94000 123000 149000
2026-05-05 04:00 12.54 53300 163000 (1999) 37100 (1981) 71400 38400 39900 42400 45400 62300 90000 94000 123000 149000
2026-05-05 03:00 12.52 53200 163000 (1999) 37100 (1981) 71400 38400 39900 42400 45400 62300 90000 94000 123000 149000
2026-05-05 02:00 12.57 53500 163000 (1999) 37100 (1981) 71400 38400 39900 42400 45400 62300 90000 94000 123000 149000
2026-05-05 01:00 12.52 53200 163000 (1999) 37100 (1981) 71400 38400 39900 42400 45400 62300 90000 94000 123000 149000
2026-05-05 00:00 12.57 53500 163000 (1999) 37100 (1981) 71400 38400 39900 42400 45400 62300 90000 94000 123000 149000
2026-05-04 23:00 12.56 53400 163000 (1999) 37100 (1981) 71400 38400 39900 42400 45400 62300 90000 94000 123000 149000
2026-05-04 22:00 12.57 53500 168000 (1984) 36200 (1981) 71300 38900 40000 42600 44300 62600 87200 92800 116000 154000
2026-05-04 21:00 12.57 53500 168000 (1984) 36200 (1981) 71300 38900 40000 42600 44300 62600 87200 92800 116000 154000
2026-05-04 20:00 12.57 53500 168000 (1984) 36200 (1981) 71300 38900 40000 42600 44300 62600 87200 92800 116000 154000
2026-05-04 19:00 12.59 53600 168000 (1984) 36200 (1981) 71300 38900 40000 42600 44300 62600 87200 92800 116000 154000
2026-05-04 18:00 12.59 53600 168000 (1984) 36200 (1981) 71300 38900 40000 42600 44300 62600 87200 92800 116000 154000
2026-05-04 17:00 12.59 53600 168000 (1984) 36200 (1981) 71300 38900 40000 42600 44300 62600 87200 92800 116000 154000
2026-05-04 16:00 12.58 53600 168000 (1984) 36200 (1981) 71300 38900 40000 42600 44300 62600 87200 92800 116000 154000
2026-05-04 15:00 12.61 53800 168000 (1984) 36200 (1981) 71300 38900 40000 42600 44300 62600 87200 92800 116000 154000
2026-05-04 14:00 12.63 53900 168000 (1984) 36200 (1981) 71300 38900 40000 42600 44300 62600 87200 92800 116000 154000
2026-05-04 13:00 12.57 53500 168000 (1984) 36200 (1981) 71300 38900 40000 42600 44300 62600 87200 92800 116000 154000
2026-05-04 12:00 12.64 54000 168000 (1984) 36200 (1981) 71300 38900 40000 42600 44300 62600 87200 92800 116000 154000
2026-05-04 11:00 12.57 53500 168000 (1984) 36200 (1981) 71300 38900 40000 42600 44300 62600 87200 92800 116000 154000
2026-05-04 10:00 12.60 53700 168000 (1984) 36200 (1981) 71300 38900 40000 42600 44300 62600 87200 92800 116000 154000
2026-05-04 09:00 12.61 53800 168000 (1984) 36200 (1981) 71300 38900 40000 42600 44300 62600 87200 92800 116000 154000
2026-05-04 08:00 12.64 54000 168000 (1984) 36200 (1981) 71300 38900 40000 42600 44300 62600 87200 92800 116000 154000
2026-05-04 07:00 12.65 54000 168000 (1984) 36200 (1981) 71300 38900 40000 42600 44300 62600 87200 92800 116000 154000
2026-05-04 06:00 12.66 54100 168000 (1984) 36200 (1981) 71300 38900 40000 42600 44300 62600 87200 92800 116000 154000
2026-05-04 05:00 12.67 54200 168000 (1984) 36200 (1981) 71300 38900 40000 42600 44300 62600 87200 92800 116000 154000
2026-05-04 04:00 12.67 54200 168000 (1984) 36200 (1981) 71300 38900 40000 42600 44300 62600 87200 92800 116000 154000
2026-05-04 03:00 12.68 54200 168000 (1984) 36200 (1981) 71300 38900 40000 42600 44300 62600 87200 92800 116000 154000
2026-05-04 02:00 12.69 54300 168000 (1984) 36200 (1981) 71300 38900 40000 42600 44300 62600 87200 92800 116000 154000
2026-05-04 01:00 12.68 54200 168000 (1984) 36200 (1981) 71300 38900 40000 42600 44300 62600 87200 92800 116000 154000
2026-05-04 00:00 12.71 54400 168000 (1984) 36200 (1981) 71300 38900 40000 42600 44300 62600 87200 92800 116000 154000
2026-05-03 23:00 12.73 54600 168000 (1984) 36200 (1981) 71300 38900 40000 42600 44300 62600 87200 92800 116000 154000

A total of 37 rows are displayed for years 1958 through 2024.